РПИ Ереван

Район полетной информации Ереван (UDDD) обеспечивает организацию воздушного движения в воздушном пространстве Армении в сети VATSIM.

В состав РПИ входит один международный аэропорт (Звартноц, г. Ереван), один аэропорт совместного базирования (Ширак, г. Гюмри), и один военный аэропорт (Эребуни, г. Еерван).

В воздушном пространстве Грузии и Армении по соглашению обеих стран в верхнем воздушном пространстве возможно применение Free-Route при планировании маршрута. На схеме ниже представлены точки на границе воздушного пространства Армении. Точки на границе с воздушным пространством Грузии (OGEVI, TAVRO, TISOT) обязательно должны быть указаны в плане полета, если полет проходит через оба воздушных пространства по технологии Free-Route.

Руководство

Grigori Badalov*

Куратор
Инструкторы РПИ
Grigori Badalov (Instructor)
Входит в состав
Кавказ

Диспетчеры РПИ

Диспетчер Рейтинг Допуски *
Ashot Hakobyan Controller UDDD_CTR
Grigori Badalov Instructor UDDD_CTR
Ivan Chernov Senior Controller UDDD_CTR
Valeriy Polostyanoy Instructor UDDD_CTR
Davit Karapetyan Student 2 UDYZ_TWR 

Аэропорты РПИ

ICAO Город Название Погода
UDYZ Ереван Звартноц UDYZ 100730Z 15001KT 3500 BR SCT036 05/01 Q1026 NOSIG
UDSG Гюмри Ширак UDSG 100730Z 26002KT 9999 OVC023 01/M04 Q1025 NOSIG
UDYE Ереван Эребуни